www.pogodaiklimat.ru

Погода и климат >> Архив погоды >> Россия >> Челябинская область >> Миасс


АРХИВ ПОГОДЫ в Миассе

Время (UTC), дата Ветер
(напр.,м/с)
 
Видим.   Явления Облачность Т
(С)
Тd
(С)
f
(%)
Тe
(С)
Тes
(С)
Комфортность P
(гПа)
Po
(гПа)
Тmin
(С)
Tmax
(С)
R
(мм)
R24
(мм)
S
(см)
15 15.09 штиль 0
{10}
10 км 6/3 600 м
[Sc Ac trans Ci fib]
+13.6 +7.0 64 +13 +13 по сезону 1011.2 971.5 +23.6
18 15.09 ЮВ 1 10 км 8/0
[Ac trans Cc]
+9.7 +7.1 84 +9 +9 по сезону 1011.0 970.8
21 15.09 ЮВ 1 10 км слаб. ливневой дождь 10/6 600 м
[Cb cap As op]
+9.5 +7.1 85 +9 +9 по сезону 1010.6 970.5
00 16.09 Ю 1 10 км {ливн. осадки} 10/8 600 м
[Cb cap Ac As]
+10.5 +7.6 82 +10 +10 по сезону 1009.0 969.0
03 16.09 ЮЗ 2 10 км слаб. ливневой дождь 10/8 600 м
[Cb cap Ac As]
+9.7 +7.9 89 +8 +8 по сезону 1008.9 968.8 +9.0 0.5
06 16.09 З 1 10 км {ливн. осадки} 10/5 600 м
[Cb cap Ac As]
+10.4 +7.8 84 +10 +11 по сезону 1008.1 968.2
09 16.09 З 1 20 км 9/6 600 м
[Cb cap Ac As]
+13.1 +5.4 60 +13 +15 по сезону 1007.1 967.6
12 16.09 СЗ 3 20 км 9/8 600 м
[Cb cap Ac As]
+13.7 +0.9 42 +13 +13 по сезону 1006.4 966.9
15 16.09 ЮЗ 1 10 км 8/6 600 м
[Cb cap Ac As]
+9.2 +4.6 73 +9 +9 прохладно 1007.2 967.1 +15.8 1
18 16.09 ЮЗ 2 10 км 8/6 600 м
[Cb cap Ac As]
+9.0 +4.0 71 +7 +7 прохладно 1006.6 966.4
21 16.09 Ю 2 10 км 10/6 600 м
[Cb cap Ac und]
+8.9 +4.3 73 +7 +7 по сезону 1004.8 964.7
00 17.09 Ю 4 10 км 10/6 600 м
[Cb cap Ac und]
+9.5 +4.6 71 +7 +7 по сезону 1003.1 963.2
03 17.09 Ю 4 10 км в посл. час ливневой дождь 8/6 600 м
[Cb cap Ac As]
+9.3 +5.0 74 +7 +7 прохладно 1002.7 962.8 +8.6 0.0
06 17.09 ЮЗ 4
{10}
20 км {ливн. осадки} 9/8 600 м
[Cb cap Ac trans]
+14.7 +5.6 54 +14 +14 тепло 1002.2 963.0
09 17.09 З 6-11
{12}
20 км 9/8 600 м
[Cb cap Ac trans]
+15.4 +2.4 42 +14 +14 по сезону 1002.9 963.8
12 17.09 З 3
{11}
20 км 6/0
[Ac trans Ci fib]
+16.6 +2.5 39 +16 +18 по сезону 1003.3 964.3
15 17.09 штиль 0 10 км 6/4 600 м
[Sc Ac trans Ci fib]
+10.3 +5.6 73 +10 +10 по сезону 1004.4 964.5 +17.0
18 17.09 ЮЗ 1 10 км 6/5 600 м
[Sc Ac trans]
+9.1 +5.5 78 +9 +9 по сезону 1004.5 964.5
21 17.09 С 1 10 км 10/6 600 м
[Cb cap Ac und]
+6.5 +4.3 86 +5 +5 прохладно 1004.2 963.8
00 18.09 ЮЗ 1 10 км 8/5 600 м
[Sc Ac trans]
+9.4 +6.1 80 +9 +9 по сезону 1003.4 963.5
03 18.09 ЮЗ 1 10 км 10/4 600 м
[Sc Ac und]
+10.7 +7.5 81 +10 +11 по сезону 1003.5 963.7 +5.9
06 18.09 Ю 2 10 км слаб. дождь 10/0 1000 м
[As op]
+11.3 +9.3 87 +10 +11 по сезону 1002.8 963.2
09 18.09 Ю 2 10 км слаб. дождь 10/3 200 м
[Frnb As op]
+11.9 +9.4 85 +11 +12 прохладно 1002.8 963.3
12 18.09 ЮЗ 2 10 км {дождь} 8/4 300 м
[Sc Ac trans]
+12.8 +9.2 79 +12 +13 прохладно 1002.3 962.9
15 18.09 штиль 0 10 км 8/3 300 м
[Sc Ac trans Ci fib]
+9.0 +6.6 85 +8 +8 прохладно 1004.0 964.0 +13.7
18 18.09 ЮЗ 1 10 км 3/3 300 м
[Sc]
+6.8 +5.4 91 +6 +6 прохладно 1004.9 964.6
21 18.09 ЮЗ 1 10 км 6/0
[Ci fib]
+6.5 +5.5 93 +5 +5 прохладно 1004.7 964.3
00 19.09 Ю 1 10 км 10/0
[As op]
+7.8 +6.3 90 +7 +7 по сезону 1003.0 962.9
03 19.09 штиль 0 4000 м слаб. дождь 10/10 100 м
[Frnb Ns]
+7.6 +6.7 94 +7 +7 по сезону 999.5 959.5 +5.2 5
06 19.09 Ю 3 4000 м слаб. дождь 10/10 200 м
[Frnb Ns]
+10.2 +9.1 93 +8 +8 прохладно 991.8 952.5
09 19.09 З 4
{16}
20 км {ливн. осадки, дождь} 5/4 600 м
[Cb cap Ac trans]
+14.4 +4.5 51 +13 +16 по сезону 989.1 950.4
12 19.09 ЮЗ 5-10
{19}
20 км {ливн. осадки, дождь} 10/8 600 м
[Cb cap Ac As]
+10.6 +0.1 48 +8 +8 холодно 990.1 950.9
15 19.09 З 4-11
{15}
10 км слаб. ливневой дождь 10/8 600 м
[Cb cap As op]
+7.3 +3.2 75 +4 +4 очень
холодно
993.4 953.6 +15.0 5
18 19.09 СЗ 6-10
{17}
10 км {ливн. осадки} 10/8 600 м
[Cb cap As op]
+8.2 +3.5 72 +4 +4 холодно 1000.8 960.8
21 19.09 З 4
{12}
10 км {ливн. осадки} 10/8 600 м
[Cb cap Ac As]
+8.0 +3.7 74 +5 +5 прохладно 1004.5 964.3
00 20.09 ЮЗ 3 10 км {ливн. осадки} 9/8 600 м
[Cb cap Ac trans]
+7.3 +3.2 75 +5 +5 по сезону 1007.1 966.8
03 20.09 З 3 20 км 9/8 600 м
[Cb cap Ac trans]
+8.2 +3.1 70 +6 +6 по сезону 1008.6 968.2 +7.0 0.1
06 20.09 ЮЗ 3 20 км {ливн. осадки} 10/8 600 м
[Cb cap Ac As]
+9.1 +4.0 70 +7 +7 прохладно 1010.6 970.3
09 20.09 СЗ 2
{11}
20 км в посл. час ливневой дождь 9/8 600 м
[Cb cap Ac trans]
+8.4 +4.5 76 +7 +8 прохладно 1012.3 971.8
12 20.09 ЮЗ 3
{10}
50 км {ливн. осадки} 6/4 600 м
[Cb cap Ac trans]
+11.2 +2.2 54 +10 +10 прохладно 1012.6 972.6
15 20.09 З 1 10 км 8/8 600 м
[Cb cap]
+7.4 +3.2 75 +7 +7 прохладно 1014.9 974.2 +12.2 0.7
18 20.09 штиль 0 10 км 5/3 600 м
[Sc Ac trans]
+3.4 +1.5 87 +2 +2 холодно 1016.5 975.2
21 20.09 Ю 1 10 км 8/5 600 м
[Cb cap Ac trans]
+3.6 +2.3 91 +2 +2 прохладно 1016.8 975.5
00 21.09 ЮЗ 2 10 км 8/3 600 м
[Sc Ac trans Cc]
+2.4 +1.1 91 -1 -1 очень
холодно
1017.0 975.5
03 21.09 С 1 10 км 9/3 600 м
[Sc Ac trans Cc]
+1.1 +0.1 93 -1 -1 очень
холодно
1017.2 975.5 +0.3
06 21.09 Ю 1 20 км 10/8 600 м
[Cb cap Ac und]
+5.3 +3.0 85 +4 +4 очень
холодно
1015.6 974.6
09 21.09 ЮЗ 3 10 км слаб. ливневой дождь 10/8 600 м
[Cb cap Ac und]
+7.9 +4.7 80 +5 +6 очень
холодно
1013.8 973.2
12 21.09 Ю 2 20 км {ливн. осадки} 10/4 600 м
[Sc Ac und]
+8.9 +4.3 73 +7 +8 очень
холодно
1011.1 970.8
15 21.09 Ю 3 10 км слаб. ливневой дождь 10/6 600 м
[Cb cap As op]
+5.9 +3.9 87 +3 +3 очень
холодно
1009.1 968.4 +9.0 0.5
18 21.09 штиль 0 10 км ливневой дождь 10/8 600 м
[Cb cap Ac und]
+5.1 +3.7 91 +4 +4 холодно 1005.9 965.3
21 21.09 С 1 10 км слаб. ливневой дождь 10/10 600 м
[Cb cap]
+4.6 +3.4 92 +3 +3 холодно 1002.2 961.6
00 22.09 СЗ 2 10 км ливневой дождь 10/10 600 м
[Cb cap]
+3.9 +2.8 93 +1 +1 холодно 999.4 958.9
03 22.09 С 1 10 км слаб. ливневой дождь 10/8 600 м
[Cb cap As op]
+3.4 +1.9 90 +2 +2 холодно 997.8 957.2 +3.4 8
06 22.09 СЗ 3 10 км в посл. час ливневой дождь 10/8 600 м
[Cb cap Ac As]
+5.7 +3.1 83 +2 +3 очень
холодно
998.1 957.8
09 22.09 З 5
{10}
20 км 8/6 600 м
[Cb cap Ac trans]
+7.5 +0.3 60 +4 +5 очень
холодно
999.0 958.9
12 22.09 СЗ 4
{11}
20 км 6/5 600 м
[Sc Ac trans]
+6.4 -2.4 53 +3 +4 очень
холодно
1001.1 960.8

 

Местоположение метеостанции Миасс (Челябинская область, Россия): широта 55.00 долгота 60.08 высота над уровнем моря 338 м.

В архиве по умолчанию представлена погода в Миассе за последнюю неделю. Архивные данные за месяц целиком и за предыдущие месяцы, начиная с января 2011 года, Вы можете получить, выбрав интересующий диапазон дат из раскрывающегося списка и нажав кнопку "Ввод!".


*Определитесь, кто Вы:
робот инопланетянин человек

Внимание! Время в таблицах - всемирное. Для получения местного времени необходимо прибавить поправку, которая равна 5 ч.

Смотрите также архив погоды в соседних городах и на ближайших метеорологических станциях:

Погода в Златоусте (Челябинская область, Россия) (32 км)
Погода в Мирном (Челябинская область, Россия) (52 км)
Погода в Челябинске (Челябинская область, Россия) (79 км)
Погода в Аргаяше (Челябинская область, Россия) (80 км)
Погода в Учалах (Башкирия, Россия) (83 км)
Погода в Южноуральске (Челябинская область, Россия) (103 км)
Погода в Николаевке (Башкирия, Россия) (112 км)
Погода в Верхнем Уфалее (Челябинская область, Россия) (121 км)
Погода в Нязепетровске (Челябинская область, Россия) (121 км)
Погода в Катав-Ивановске (Челябинская область, Россия) (122 км)

Пояснения к столбцам:

Ветер - указаны скорость ветра в м/с - средняя за 10 мин, порывы в срок и между сроками (в фигурных скобках) и направление, откуда дует ветер: С - северный, СВ - северо-восточный, В - восточный, ЮВ - юго-восточный, Ю - южный, ЮЗ - юго-западный, З - западный, СЗ - северо-западный.
Видимость - горизонтальная дальность видимости в метрах или километрах. При видимости от 1 до 10 км при отсутствии осадков обычно наблюдается дымка, при ухудшении видимости до 1 км и менее - туман. В сухую погоду видимость может ухудшаться дымом, пылью или мглою.
Явления - указаны атмосферные явления, наблюдавшиеся в срок или в последний час перед сроком; фигурными скобками обозначены явления, наблюдавшиеся между сроками (за 1-3 часа до срока); квадратными скобками обозначены град или гололедные отложения с указанием их диаметра в мм.
Облачность - указаны через наклонную черту общая и нижняя облачность в баллах и высота нижней границы облаков в метрах; квадратными скобками обозначены формы облаков: Ci - перистые, Cs - перисто-слоистые, Cc - перисто-кучевые, Ac - высококучевые, As - высокослоистые, Sc - слоисто-кучевые, Ns - слоисто-дождевые, Cu - кучевые, Cb - кучево-дождевые. Подробнее классификацию облаков см. в Атласе облаков (PDF).
T - Температура воздуха - температура, измеренная на высоте 2 м над землей.
Td - Температура точки росы - температура, при понижении до которой содержащийся в воздухе водяной пар достигнет насыщения.
f - Относительная влажность воздуха - влажноcть воздуха, измеренная на высоте 2 м над землей.
Te - Эффективная температура - температура, которую ощущает одетый по сезону человек в тени. Характеристика душности погоды. При расчете учитывается влияние влажности воздуха и скорости ветра на теплоощущения человека.
Tes - Эффективная температура на солнце - температура, которую ощущает человек, с поправкой на солнечный нагрев. Характеристика знойности погоды. Зависит от высоты солнца над горизонтом, облачности и скорости ветра. Ночью, в пасмурную погоду, а также при ветре 12 м/с и более поправка равна нулю.
P - Атмосферное давление - приведенное к уровню моря атмосферное давление.
Po - Атмосферное давление - измеренное на уровне метеостанции атмосферное давление.
Tmin - Минимальная температура - минимум температуры воздуха на высоте 2 м над землей.
Tmax - Максимальная температура - максимум температуры воздуха на высоте 2 м над землей.
R - Количество осадков - Количество выпавших осадков за период времени, мм. При наведении курсора мыши на число - период времени, за который выпало указанное количество осадков.
R24 - Количество осадков - Количество выпавших осадков за 24 часа, мм.
S - Снежный покров - Высота снежного покрова, см. При наведении курсора мыши на число - состояние снежного покрова и степень покрытия местности в баллах.